Погода в Томшарове

Россия / Республика Марий Эл     56°46′05″N   48°07′25″E
темп.,
°C
ветер,
м/с
пор.,
м/с
влажн.,
%
обл.,
%
осадки,
мм/ч
давл.,
гПа
погр.,
м
22 апреля, чт
чт2200:00+3ююв61393100 0.0 1018677
03:00+3ю61395100 0.4 1019608
06:00+4ю51195100 0.1 1020477
09:00+6ю51088100 0.1 1021509
12:00+8ю5108096 0.0 1021633
15:00+11ю61072100 0.4 10201600
18:00+10ююз48765 1.8 1021249
21:00+6ю22915 2.1 102215
23 апреля, пт
пт2300:00+4ююз22935 0.0 102313
03:00+3ю22935 0.0 102419
06:00+4ю23885 0.0 102494
09:00+10ю34670 0.0 1024631
12:00+13ю33495 0.0 10241293
15:00+15ююв22458 0.0 10221625
18:00+12юв235914 0.0 102259
21:00+8юв38805 0.0 1022174
24 апреля, сб
сб2400:00+6юв379098 0.0 1020131
03:00+5вюв3892100 0.0 1019161
06:00+6в3986100 0.0 1018304
09:00+9в5773100 0.0 1016623
12:00+10юв5777100 0.0 1014986
15:00+8вюв5782100 0.2 1013805
18:00+7вюв4889100 0.0 1011689
21:00+6вюв499499 0.2 1010505
25 апреля, вс
вс2500:00+5юв41095100 0.0 1007460
03:00+5вюв51195100 2.3 1003481
06:00+6ю4898100 4.9 1001764
09:00+3зюз61396100 8.3 1003872
12:00+8зюз81370100 1.1 10051585
15:00+9зюз814545 1.8 10072254
18:00+7зюз612585 0.3 10081079
21:00+3юз4107815 0.3 1010254
26 апреля, пн
пн2600:00+2юз411825 0.1 1011314
03:00+2ююз412864 0.1 1012374
06:00+2юз511825 0.0 1013522
09:00+7юз610565 0.0 10131459
12:00+9юз71140100 0.0 10132674
15:00+10юз71240100 0.1 10122821
18:00+8ююз486392 0.3 1012645
21:00+4ююз38905 0.6 1012177